Terminal Aerodrome Forecast
Issued by NWS

Home | Current Version | Previous Version | Text Only | Print | Product List | Glossary On
Versions: 1 2 3 4 5 6 7 8 9 10 11 12 13 14 15 16 17 18 19 20 21 22 23 24
000
FTUS41 KBUF 282320
TAFJHW
TAF
KJHW 282320Z 2900/2924 19004KT P6SM SCT050
     FM290500 18004KT 3SM BR SCT250
     FM290700 18004KT 1/2SM FG BKN002
     FM291300 20004KT P6SM BKN050
     FM291800 22008KT 4SM SHRA VCTS BKN060CB
     FM292200 21008KT P6SM VCSH BKN070
      AMD LTD TO CLD VIS AND WIND=

USA.gov is the U.S. government's official web portal to all federal, state and local government web resources and services.